| time (UTC) | temp F | wind direction | speed MPH | gust MPH | rain 1hr in | rain 24hr in | rain mn in | humidity % | barometer mb |
| 20260906104536 | 48 | 322 | 0.0 | 4.0 | 0.06 | 0.07 | 0.07 | 90 | 1017.3 |
| 20260906103034 | 48 | 286 | 2.0 | 9.0 | 0.05 | 0.05 | 0.05 | 90 | 1017.5 |
| 20260906101535 | 48 | 246 | 1.0 | 4.0 | 0.03 | 0.03 | 0.03 | 89 | 1017.5 |
| 20260906100033 | 49 | 236 | 0.0 | 2.0 | 0.02 | 0.02 | 0.02 | 89 | 1017.2 |
| 20260906094527 | 49 | 208 | 0.0 | 2.0 | 0.01 | 0.01 | 0.01 | 88 | 1017.2 |
| 20260906093025 | 49 | 209 | 0.0 | 2.0 | 0.00 | 0.00 | 0.00 | 86 | 1017.2 |
| 20260906091527 | 49 | 194 | 0.0 | 2.0 | 0.00 | 0.00 | 0.00 | 86 | 1017.1 |
| 20260906090025 | 50 | 316 | 1.0 | 3.0 | 0.00 | 0.00 | 0.00 | 84 | 1017.2 |
| 20260906084522 | 50 | 355 | 1.0 | 4.0 | 0.00 | 0.00 | 0.00 | 81 | 1017.5 |
| 20260906083021 | 50 | 322 | 3.0 | 7.0 | 0.00 | 0.00 | 0.00 | 82 | 1017.6 |
| 20260906081522 | 50 | 256 | 0.0 | 4.0 | 0.00 | 0.00 | 0.00 | 82 | 1017.6 |
| 20260906080022 | 49 | 237 | 1.0 | 4.0 | 0.00 | 0.00 | 0.00 | 84 | 1017.4 |
| 20260906074515 | 49 | 205 | 0.0 | 3.0 | 0.00 | 0.00 | 0.00 | 85 | 1017.4 |
| 20260906073015 | 49 | 218 | 0.0 | 3.0 | 0.00 | 0.00 | 0.00 | 84 | 1017.6 |
| 20260906071519 | 49 | 211 | 0.0 | 3.0 | 0.00 | 0.00 | 0.00 | 84 | 1017.7 |
| 20260906070009 | 50 | 219 | 0.0 | 2.0 | 0.00 | 0.00 | 0.00 | 83 | 1018.0 |
| 20260906064508 | 50 | 265 | 0.0 | 4.0 | 0.00 | 0.00 | 0.00 | 82 | 1017.7 |
| 20260906063010 | 51 | 241 | 0.0 | 4.0 | 0.00 | 0.00 | 0.00 | 81 | 1018.2 |
| 20260906061508 | 51 | 269 | 1.0 | 7.0 | 0.00 | 0.00 | 0.00 | 80 | 1018.4 |
| 20260906060006 | 52 | 288 | 3.0 | 8.0 | 0.00 | 0.00 | 0.00 | 78 | 1018.4 |
| 20260906054506 | 53 | 267 | 3.0 | 8.0 | 0.00 | 0.00 | 0.00 | 76 | 1018.5 |
| 20260906053006 | 53 | 289 | 2.0 | 11.0 | 0.00 | 0.00 | 0.00 | 73 | 1018.6 |
| 20260906051511 | 55 | 212 | 6.0 | 11.0 | 0.00 | 0.00 | 0.00 | 69 | 1018.3 |
| 20260906050005 | 57 | 239 | 5.0 | 12.0 | 0.00 | 0.00 | 0.00 | 61 | 1017.9 |
| 20260906044507 | 58 | 250 | 1.0 | 7.0 | 0.00 | 0.00 | 0.00 | 58 | 1017.6 |
| 20260906043011 | 58 | 264 | 2.0 | 5.0 | 0.00 | 0.00 | 0.00 | 55 | 1017.3 |
| 20260906041505 | 58 | 242 | 0.0 | 3.0 | 0.00 | 0.00 | 0.00 | 56 | 1017.3 |
| 20260906040004 | 59 | 307 | 0.0 | 4.0 | 0.00 | 0.00 | 0.00 | 56 | 1017.0 |
| 20260906034503 | 58 | 280 | 0.0 | 2.0 | 0.00 | 0.00 | 0.00 | 61 | 1016.8 |
| 20260906033004 | 60 | 10 | 1.0 | 5.0 | 0.00 | 0.00 | 0.00 | 57 | 1016.5 |
| 20260906031502 | 61 | 327 | 2.0 | 5.0 | 0.00 | 0.00 | 0.00 | 57 | 1016.6 |
| 20260906030004 | 62 | 323 | 0.0 | 2.0 | 0.00 | 0.00 | 0.00 | 51 | 1016.7 |
| 20260906024501 | 63 | 264 | 0.0 | 3.0 | 0.00 | 0.00 | 0.00 | 46 | 1016.7 |
| 20260906023003 | 63 | 9 | 0.0 | 4.0 | 0.00 | 0.00 | 0.00 | 44 | 1016.4 |
| 20260906021501 | 63 | 17 | 3.0 | 7.0 | 0.00 | 0.00 | 0.00 | 45 | 1016.3 |
| 20260906020100 | 64 | 103 | 0.0 | 4.0 | 0.00 | 0.00 | 0.00 | 45 | 1016.3 |
| 20260906014559 | 65 | 98 | 1.0 | 5.0 | 0.00 | 0.00 | 0.00 | 43 | 1016.4 |
| 20260906013059 | 66 | 101 | 1.0 | 5.0 | 0.00 | 0.00 | 0.00 | 43 | 1016.4 |
| 20260906011558 | 66 | 34 | 0.0 | 4.0 | 0.00 | 0.00 | 0.00 | 41 | 1016.5 |
| 20260906010137 | 66 | 331 | 1.0 | 5.0 | 0.00 | 0.06 | 0.00 | 40 | 1016.5 |
| 20260906004615 | 66 | 343 | 3.0 | 6.0 | 0.00 | 0.06 | 0.00 | 41 | 1016.6 |
| 20260906003056 | 66 | 327 | 3.0 | 6.0 | 0.00 | 0.06 | 0.00 | 39 | 1016.5 |
| 20260906001603 | 67 | 333 | 1.0 | 3.0 | 0.00 | 0.06 | 0.00 | 39 | 1016.6 |
| 20260906000054 | 67 | 330 | 1.0 | 6.0 | 0.00 | 0.07 | 0.00 | 41 | 1016.6 |
| 20260905234553 | 67 | 313 | 2.0 | 5.0 | 0.00 | 0.07 | 0.00 | 40 | 1016.7 |
| 20260905233052 | 67 | 279 | 2.0 | 6.0 | 0.00 | 0.07 | 0.00 | 40 | 1016.7 |
| 20260905231550 | 68 | 329 | 2.0 | 7.0 | 0.00 | 0.07 | 0.00 | 39 | 1016.9 |
| 20260905230050 | 67 | 324 | 3.0 | 6.0 | 0.00 | 0.07 | 0.00 | 39 | 1017.0 |
| 20260905224549 | 68 | 171 | 0.0 | 7.0 | 0.00 | 0.07 | 0.00 | 40 | 1016.9 |
| 20260905223052 | 68 | 331 | 3.0 | 8.0 | 0.00 | 0.07 | 0.00 | 41 | 1017.2 |
| 20260905221543 | 67 | 261 | 2.0 | 6.0 | 0.00 | 0.07 | 0.00 | 43 | 1017.3 |
| 20260905220041 | 67 | 13 | 5.0 | 9.0 | 0.00 | 0.07 | 0.00 | 43 | 1017.4 |
| 20260905214544 | 67 | 265 | 4.0 | 8.0 | 0.00 | 0.07 | 0.00 | 43 | 1017.6 |
| 20260905213037 | 67 | 165 | 2.0 | 4.0 | 0.00 | 0.07 | 0.00 | 45 | 1017.9 |
| 20260905211533 | 66 | 329 | 3.0 | 8.0 | 0.00 | 0.07 | 0.00 | 46 | 1018.0 |
| 20260905210044 | 65 | 296 | 1.0 | 6.0 | 0.00 | 0.08 | 0.00 | 48 | 1018.2 |
| 20260905204533 | 65 | 287 | 5.0 | 15.0 | 0.00 | 0.08 | 0.00 | 46 | 1018.3 |
| 20260905203028 | 64 | 355 | 2.0 | 10.0 | 0.00 | 0.08 | 0.00 | 48 | 1018.4 |
| 20260905201530 | 64 | 333 | 1.0 | 4.0 | 0.00 | 0.08 | 0.00 | 50 | 1018.6 |
| 20260905200032 | 64 | 350 | 0.0 | 5.0 | 0.00 | 0.09 | 0.00 | 50 | 1018.8 |
| 20260905194520 | 63 | 327 | 1.0 | 5.0 | 0.00 | 0.09 | 0.00 | 50 | 1018.9 |
| 20260905193020 | 62 | 93 | 3.0 | 5.0 | 0.00 | 0.09 | 0.00 | 53 | 1019.0 |
| 20260905191514 | 61 | 60 | 1.0 | 4.0 | 0.00 | 0.09 | 0.00 | 56 | 1019.1 |
| 20260905190012 | 60 | 347 | 1.0 | 5.0 | 0.00 | 0.09 | 0.00 | 62 | 1019.5 |
| 20260905184508 | 59 | 42 | 1.0 | 4.0 | 0.00 | 0.09 | 0.00 | 64 | 1019.8 |
| 20260905183005 | 58 | 317 | 2.0 | 4.0 | 0.00 | 0.09 | 0.00 | 64 | 1019.9 |
| 20260905181502 | 57 | 88 | 1.0 | 4.0 | 0.00 | 0.09 | 0.00 | 67 | 1020.2 |
| 20260905180059 | 55 | 110 | 0.0 | 3.0 | 0.00 | 0.09 | 0.00 | 71 | 1020.3 |
| 20260905174558 | 54 | 311 | 0.0 | 2.0 | 0.00 | 0.09 | 0.00 | 76 | 1020.5 |
| 20260905173054 | 52 | 30 | 0.0 | 3.0 | 0.00 | 0.09 | 0.00 | 76 | 1020.6 |
| 20260905171549 | 50 | 98 | 0.0 | 2.0 | 0.00 | 0.09 | 0.00 | 83 | 1020.8 |
| 20260905170044 | 48 | 109 | 0.0 | 3.0 | 0.00 | 0.09 | 0.00 | 83 | 1020.8 |
| 20260905164544 | 47 | 96 | 0.0 | 4.0 | 0.00 | 0.09 | 0.00 | 84 | 1020.9 |
| 20260905163038 | 46 | 91 | 1.0 | 8.0 | 0.00 | 0.09 | 0.00 | 86 | 1021.0 |
| 20260905161536 | 45 | 81 | 2.0 | 5.0 | 0.00 | 0.09 | 0.00 | 88 | 1021.0 |
| 20260905160034 | 44 | 79 | 1.0 | 3.0 | 0.00 | 0.09 | 0.00 | 88 | 1021.1 |
| 20260905154531 | 44 | 75 | 2.0 | 6.0 | 0.00 | 0.09 | 0.00 | 89 | 1021.3 |
| 20260905153034 | 43 | 21 | 2.0 | 5.0 | 0.00 | 0.09 | 0.00 | 89 | 1021.0 |
| 20260905151526 | 42 | 93 | 2.0 | 8.0 | 0.00 | 0.09 | 0.00 | 90 | 1021.0 |
| 20260905150024 | 40 | 76 | 0.0 | 2.0 | 0.00 | 0.09 | 0.00 | 94 | 1021.1 |
| 20260905144521 | 39 | 257 | 0.0 | 2.0 | 0.00 | 0.09 | 0.00 | 93 | 1021.1 |
| 20260905143027 | 39 | 219 | 0.0 | 1.0 | 0.00 | 0.09 | 0.00 | 92 | 1020.8 |
| 20260905141518 | 39 | 299 | 0.0 | 3.0 | 0.00 | 0.09 | 0.00 | 93 | 1020.8 |
| 20260905140016 | 39 | 118 | 0.0 | 4.0 | 0.00 | 0.09 | 0.00 | 93 | 1020.5 |
| 20260905134525 | 38 | 47 | 0.0 | 3.0 | 0.00 | 0.09 | 0.00 | 94 | 1020.4 |
| 20260905133015 | 38 | 118 | 0.0 | 3.0 | 0.00 | 0.09 | 0.00 | 94 | 1020.4 |
| 20260905131514 | 38 | 97 | 0.0 | 2.0 | 0.00 | 0.09 | 0.00 | 94 | 1020.2 |
| 20260905130013 | 37 | 246 | 0.0 | 0.0 | 0.00 | 0.09 | 0.00 | 94 | 1020.4 |
| 20260905124518 | 37 | 107 | 0.0 | 0.0 | 0.00 | 0.09 | 0.00 | 94 | 1020.3 |
| 20260905123040 | 37 | 234 | 0.0 | 0.0 | 0.00 | 0.09 | 0.00 | 93 | 1020.4 |
| 20260905121515 | 37 | 232 | 0.0 | 0.0 | 0.00 | 0.09 | 0.00 | 94 | 1020.3 |
| 20260905120009 | 37 | 103 | 0.0 | 0.0 | 0.00 | 0.09 | 0.00 | 93 | 1020.4 |
| 20260905114513 | 38 | 117 | 0.0 | 1.0 | 0.00 | 0.09 | 0.00 | 94 | 1020.5 |
| 20260905113008 | 37 | 121 | 0.0 | 0.0 | 0.00 | 0.09 | 0.00 | 93 | 1020.5 |
| 20260905111508 | 37 | 139 | 0.0 | 0.0 | 0.00 | 0.09 | 0.00 | 93 | 1020.5 |
| 20260905110006 | 37 | 161 | 0.0 | 0.0 | 0.00 | 0.09 | 0.00 | 92 | 1020.5 |